Rabat-Sale, Morocco

2:11 PM WET on May 29, 2017 (GMT +0000)
Rabat-Sale

Weather History for GMME - October, 2013

Change the Weather History Date:

Thursday, October 17, 2013

  Actual Average Record
Temperature  
Mean Temperature 64 °F -  
Max Temperature 76 °F 70 °F 86 °F (2016)
Min Temperature 53 °F 53 °F 51 °F (2012)
Growing Degree Days 14 (Base 50)    
Moisture  
Dew Point 61 °F    
Average Humidity 87    
Maximum Humidity 100    
Minimum Humidity 59    
Precipitation  
Precipitation 0.00 in 0.10 in - ()
Sea Level Pressure  
Sea Level Pressure 30.01 in    
Wind  
Wind Speed 1 mph ()    
Max Wind Speed 8 mph    
Max Gust Speed -    
Visibility 2.0 miles    
Events Fog    
Averages and records for this station are not official NWS values.
T = Trace of Precipitation, MM = Missing Value Source: Averaged Metar Reports

Daily Weather History Graph

Daily Weather History Graph

Search for Another Location

Airport or City:

Trip Planner

Search our weather history database for the weather conditions in past years. The results will help you decide how hot, cold, wet, or windy it might be!

Date:

Astronomy

Oct. 17, 2013 Rise Set
Actual Time 7:33 AM WEST 6:50 PM WEST
Civil Twilight 7:08 AM WEST 7:15 PM WEST
Nautical Twilight 6:39 AM WEST 7:44 PM WEST
Astronomical Twilight 6:10 AM WEST 8:13 PM WEST
Moon 5:54 PM WEST (10/17) 5:54 AM WEST (10/17)
Length of Visible Light 12h 07m
Length of Day
11h 16m
Waxing Gibbous, 97% of the Moon is Illuminated
Oct 17
Waxing Gibbous
Oct 19
Full
Oct 27
Last Quarter
Nov 3
New
Nov 10
First Quarter

Hourly Weather History & Observations

Time (WEST) Temp. Dew Point Humidity Pressure Visibility Wind Dir Wind Speed Gust Speed Precip Events Conditions
12:00 AM 60.8 °F 59.0 °F 94% 30.06 in 1.2 mi Calm Calm - N/A   Mostly Cloudy
1:00 AM 59 °F 57 °F 91% 30.06 in 1 mi Calm Calm - -   Mist
1:00 AM 59.0 °F 57.2 °F 94% 30.04 in 1.2 mi Calm Calm - N/A   Mostly Cloudy
3:00 AM 57.2 °F 55.4 °F 94% 30.04 in 1.9 mi Calm Calm - N/A   Mostly Cloudy
3:30 AM 55.4 °F 55.4 °F 100% 30.01 in 1.9 mi Calm Calm - N/A   Mostly Cloudy
4:00 AM 56 °F 54 °F 92% 30.02 in 2 mi Calm Calm - -   Mist
4:00 AM 55.4 °F 53.6 °F 94% 30.01 in 1.9 mi Calm Calm - N/A   Mostly Cloudy
4:30 AM 55.4 °F 53.6 °F 94% 30.01 in 1.9 mi Calm Calm - N/A   Mostly Cloudy
5:00 AM 60.8 °F 60.8 °F 100% 30.01 in 1.2 mi Calm Calm - N/A   Mostly Cloudy
5:14 AM 62.6 °F 60.8 °F 94% 30.01 in 0.2 mi Calm Calm - N/A Fog Fog
5:30 AM 62.6 °F 60.8 °F 94% 30.01 in 0.2 mi Calm Calm - N/A Fog Fog
6:00 AM 60.8 °F 60.8 °F 100% 30.01 in 0.2 mi Calm Calm - N/A Fog Fog
6:30 AM 59.0 °F 59.0 °F 100% 30.01 in 0.5 mi Calm Calm - N/A Fog Fog
7:00 AM 59 °F 57 °F 92% 30.01 in 0 mi Calm Calm - - Fog Partial Fog
7:00 AM 59.0 °F 57.2 °F 94% 30.01 in 0.5 mi Calm Calm - N/A Fog Fog
7:41 AM 60.8 °F 59.0 °F 94% 30.01 in 1.0 mi Calm Calm - N/A   Overcast
7:54 AM 60.8 °F 59.0 °F 94% 30.01 in 0.5 mi Calm Calm - N/A Fog Fog
8:00 AM 60.8 °F 59.0 °F 94% 30.01 in 0.1 mi Calm Calm - N/A Fog Fog
8:30 AM 62.6 °F 60.8 °F 94% 30.01 in 0.5 mi Calm Calm - N/A Fog Fog
8:31 AM 62.6 °F 60.8 °F 94% 30.01 in 0.5 mi Calm Calm - N/A Fog Fog
8:41 AM 62.6 °F 60.8 °F 94% 30.01 in 2.5 mi Calm Calm - N/A   Overcast
9:00 AM 62.6 °F 60.8 °F 94% 30.01 in 3.1 mi Calm Calm - N/A   Mostly Cloudy
9:30 AM 62.6 °F 62.6 °F 100% 30.01 in 3.1 mi Calm Calm - N/A   Mostly Cloudy
10:00 AM 65 °F 63 °F 91% 30.03 in 2 mi Calm Calm - -   Mist
10:00 AM 64.4 °F 62.6 °F 94% 30.04 in 1.9 mi Calm Calm - N/A   Mostly Cloudy
10:14 AM 64.4 °F 62.6 °F 94% 30.04 in 0.9 mi Calm Calm - N/A   Mostly Cloudy
10:30 AM 66.2 °F 64.4 °F 94% 30.04 in 0.9 mi Calm Calm - N/A   Mostly Cloudy
10:48 AM 66.2 °F 64.4 °F 94% 30.04 in 2.5 mi Calm Calm - N/A   Mostly Cloudy
11:00 AM 66.2 °F 64.4 °F 94% 30.04 in 2.5 mi Calm Calm - N/A   Mostly Cloudy
11:13 AM 68.0 °F 66.2 °F 94% 30.04 in 3.1 mi Calm Calm - N/A   Scattered Clouds
12:00 PM 73.4 °F 64.4 °F 73% 30.04 in 3.1 mi Calm Calm - N/A   Scattered Clouds
12:30 PM 75.2 °F 64.4 °F 69% 30.01 in 3.1 mi NW 6.9 mph - N/A   Scattered Clouds
1:00 PM 73 °F 63 °F 64% 30.01 in 2 mi NW 8.1 mph - -   Mist
1:00 PM 73.4 °F 62.6 °F 69% 30.01 in 2.5 mi NW 8.1 mph - N/A   Scattered Clouds
1:30 PM 71.6 °F 62.6 °F 73% 30.01 in 2.5 mi NW 8.1 mph - N/A   Scattered Clouds
2:00 PM 69.8 °F 64.4 °F 83% 30.01 in 2.5 mi NW 8.1 mph - N/A   Scattered Clouds
2:30 PM 71.6 °F 62.6 °F 73% 29.98 in 2.5 mi NNW 6.9 mph - N/A   Scattered Clouds
3:00 PM 73.4 °F 62.6 °F 69% 29.98 in 2.5 mi NW 5.8 mph - N/A   Scattered Clouds
3:30 PM 75.2 °F 62.6 °F 65% 29.98 in 2.5 mi NW 6.9 mph - N/A   Scattered Clouds
3:51 PM 73.4 °F 60.8 °F 65% 29.98 in 2.5 mi NNW 8.1 mph - N/A   Scattered Clouds
3:53 PM 73.4 °F 62.6 °F 69% 29.98 in 3.1 mi NNW 8.1 mph - N/A   Scattered Clouds
4:00 PM 74 °F 63 °F 59% 29.98 in 3 mi NNW 8.1 mph - -   Partly Cloudy
4:00 PM 73.4 °F 62.6 °F 69% 29.98 in 3.1 mi NNW 8.1 mph - N/A   Scattered Clouds
4:30 PM 73.4 °F 62.6 °F 69% 29.98 in 3.1 mi NNW 6.9 mph - N/A   Scattered Clouds
5:00 PM 73.4 °F 62.6 °F 69% 29.98 in 3.1 mi NNW 6.9 mph - N/A   Scattered Clouds
5:30 PM 71.6 °F 64.4 °F 78% 29.98 in 3.7 mi NW 6.9 mph - N/A   Scattered Clouds
6:00 PM 71.6 °F 62.6 °F 73% 29.95 in 3.7 mi Calm Calm - N/A   Scattered Clouds
6:30 PM 71.6 °F 62.6 °F 73% 29.95 in 3.7 mi Calm Calm - N/A   Scattered Clouds
7:00 PM 69 °F 63 °F 76% 29.97 in 3 mi Calm Calm - -   Partly Cloudy
7:00 PM 69.8 °F 62.6 °F 78% 29.98 in 3.1 mi Calm Calm - N/A   Scattered Clouds
8:00 PM 68.0 °F 64.4 °F 88% 29.98 in 3.1 mi Calm Calm - N/A   Scattered Clouds
8:14 PM 66.2 °F 64.4 °F 94% 29.98 in 2.5 mi Calm Calm - N/A   Mostly Cloudy
8:30 PM 66.2 °F 64.4 °F 94% 29.98 in 2.5 mi Calm Calm - N/A   Mostly Cloudy
9:00 PM 66.2 °F 62.6 °F 88% 30.01 in 2.5 mi Calm Calm - N/A   Mostly Cloudy
9:14 PM 66.2 °F 62.6 °F 88% 30.01 in 3.1 mi Calm Calm - N/A   Scattered Clouds
9:30 PM 64.4 °F 62.6 °F 94% 30.01 in 3.1 mi Calm Calm - N/A   Scattered Clouds
9:48 PM 64.4 °F 62.6 °F 94% 30.01 in 3.1 mi Calm Calm - N/A   Mostly Cloudy
10:00 PM 64 °F 62 °F 90% 30.00 in 3 mi Calm Calm - -   Mostly Cloudy
10:00 PM 64.4 °F 62.6 °F 94% 29.98 in 3.1 mi Calm Calm - N/A   Mostly Cloudy
10:07 PM 64.4 °F 62.6 °F 94% 29.98 in 1.2 mi Calm Calm - N/A   Mostly Cloudy
10:21 PM 64.4 °F 62.6 °F 94% 30.01 in 0.4 mi Calm Calm - N/A Fog Fog
10:30 PM 62.6 °F 60.8 °F 94% 30.01 in 0.4 mi Calm Calm - N/A Fog Fog
11:00 PM 62.6 °F 60.8 °F 94% 30.01 in 0.4 mi Calm Calm - N/A Fog Fog
11:17 PM 62.6 °F 60.8 °F 94% 30.01 in 1.0 mi SE 3.5 mph - N/A   Scattered Clouds
11:30 PM 62.6 °F 60.8 °F 94% 29.98 in 1.0 mi ESE 3.5 mph - N/A   Scattered Clouds